81P/Wild 2 (2022)

Japanese version
Home page
Updated on September 3, 2024

---------------------------------------------------------------------

* Profile

* Pictures

* Orbital Elements

Epoch 2024 Oct. 17.0 TT = JDT 2460600.5
T 2022 Dec. 15.60936 TT                                 Rudenko
q   1.5970151            (2000.0)            P               Q
n   0.15366145     Peri.   41.56826     -0.99843366     -0.03995649
a   3.4521748      Node   136.09431     +0.02321406     -0.93273600
e   0.5373887      Incl.    3.23739     +0.05090516     -0.35833927
P   6.41
>From 2815 observations 2014 Oct. 18-2024 Aug. 27, mean residual 0".7.
     Nongravitational parameters A1 = +0.26, A2 = +0.1919.

* Finding Charts

* Magnitudes Graph

        m1 = 6.3 + 5 log d + 18.0 log r(t + 20)  [  ,95]  (             - 2023 Mar. 20)
        m1 = 8.2 + 5 log d + 12.5 log r          [95,  ]  (2023 Mar. 20 -             )

---------------------------------------------------------------------

The orbital elements are published on M.P.E.C. 2024-R10.
The charts are made with StellaNavigator Ver.10 (AstroArts).
The magnitudes graphs are made with Comet for Windows.

---------------------------------------------------------------------

Copyright(C) Seiichi Yoshida (comet@aerith.net). All rights reserved.